Regional Weather Roundup
Issued by NWS Upton, NY

Current Version | Previous Version | Text Only | Print | Product List | Glossary Off
Versions: 1 2 3 4 5 6 7 8 9 10 11 12 13 14 15 16 17 18 19 20 21 22 23 24 25 26 27 28 29 30 31 32 33 34 35 36 37 38 39 40 41 42 43 44 45 46 47 48 49 50
000 ASUS41 KOKX 221808 RWROKX REGIONAL WEATHER ROUNDUP NATIONAL WEATHER SERVICE NEW YORK NY 100 PM EST WED FEB 22 2017 NOTE: "FAIR" INDICATES FEW OR NO CLOUDS BELOW 12,000 FEET WITH NO SIGNIFICANT WEATHER AND/OR OBSTRUCTIONS TO VISIBILITY. NYZ071-072-176-178-NJZ106-104-221900- NEW YORK CITY METRO AREA CITY SKY/WX TMP DP RH WIND PRES REMARKS Central Park CLOUDY 51 37 58 VRB3 29.98F Wall St Helipt NOT AVBL LaGuardia APRT CLOUDY 54 37 52 N3 29.95F Kennedy INTL CLOUDY 48 40 73 SW7 29.98F Breezy Point N/A 45 N/A N/A S3 N/A Newark/Liberty CLOUDY 52 37 56 W6 29.96F Teterboro PTSUNNY 51 37 58 CALM 29.95F $$ NYZ177-179-078>081-221900- LONG ISLAND NEW YORK CITY SKY/WX TMP DP RH WIND PRES REMARKS Jones Beach N/A 45 N/A N/A SW6 N/A Matinecock PT NOT AVBL Farmingdale MOSUNNY 50 41 71 SW7 29.96F MacArthur/ISP CLOUDY 50 40 68 S7 29.96F Shirley CLOUDY 48 41 76 SW8 29.98F Westhampton LGT RAIN 45 40 82 SW5 29.99F Southampton NOT AVBL Bridgehampton NOT AVBL East Hampton CLOUDY 47 38 72 SW7 29.97F Montauk N/A 48 39 71 SW6 29.98F $$ NYZ052-065-067-221900- HUDSON VALLEY CITY SKY/WX TMP DP RH WIND PRES REMARKS White Plains CLOUDY 47 37 68 S5 29.93F Newburgh CLOUDY 45 41 87 VRB6 29.94F Montgomery CLOUDY 47 39 74 SW5 29.92F Poughkeepsie PTSUNNY 47 36 65 W7 29.93F Albany MOSUNNY 53 33 46 SW8 29.93F $$ NJZ001-105-106-008-010-013-015-019>022-104-221900- NEW JERSEY CITY SKY/WX TMP DP RH WIND PRES REMARKS Newark/Liberty CLOUDY 52 37 56 W6 29.96F Teterboro PTSUNNY 51 37 58 CALM 29.95F Caldwell PTSUNNY 51 37 58 SE3 29.96F Somerville MOSUNNY 53 38 56 VRB3 29.93F Linden NOT AVBL Sussex CLOUDY 50 40 68 SW6 29.93F Andover N/A 50 37 61 SW5 29.94F Trenton CLOUDY 53 40 61 VRB3 29.96F Millville CLOUDY 53 48 83 S5 29.97F Atlantic City PTSUNNY 58 48 69 W5 29.97F Wrightstown PTSUNNY 55 43 65 VRB3 29.93F Toms River CLOUDY 57 45 64 W3 29.96 Belmar PTSUNNY 51 42 71 SW8 29.98F $$ PAZ047>061-062-071-221900- EASTERN PENNSYLVANIA CITY SKY/WX TMP DP RH WIND PRES REMARKS Philadelphia CLOUDY 55 42 61 VRB3 29.97F Allentown PTSUNNY 53 37 54 CALM 29.94F Scranton CLOUDY 51 39 63 SW3 29.92F $$ CTZ002-004>006-009-010-012-RIZ004-006-007-MAZ004-011-015-221900- SOUTHERN NEW ENGLAND IN CT CITY SKY/WX TMP DP RH WIND PRES REMARKS Bradley INTL CLOUDY 50 34 54 S6 29.94F Hartford CLOUDY 51 36 56 CALM 29.94F Danbury PTSUNNY 46 36 68 W3 29.95F Wtrbury/Oxford CLOUDY 48 34 57 CALM 29.94F Bridgeport CLOUDY 46 38 73 SW8 29.96F Meriden PTSUNNY 51 35 54 S6 29.94F New Haven CLOUDY 44 36 73 SW7 29.96F Chester MOCLDY 50 36 57 CALM 29.95F Groton CLOUDY 49 37 63 SW7 29.96F Wilimantic CLOUDY 54 35 48 W5 29.95F IN RI CITY SKY/WX TMP DP RH WIND PRES REMARKS Providence CLOUDY 55 35 47 W8 29.94F Block Island MOSUNNY 46 39 76 SW14 29.97F Westerly CLOUDY 48 35 60 SW9 29.97F IN MA CITY SKY/WX TMP DP RH WIND PRES REMARKS Boston PTSUNNY 55 37 50 W6 29.92F Worcester CLOUDY 50 33 52 W9 29.92F Westfield CLOUDY 52 35 52 SE5 29.92F Provincetown MOSUNNY 49 38 65 SW6 29.94F Nantucket MOSUNNY 46 40 79 SW13 29.96F $$ ANZ330-335-338-340-345-350-353-355-221900- COASTAL MARINE OBSERVATIONS STATION/POSITION TIME SKY/WX TEMP WIND PRES VSBY WAVE AIR SEA DIR/SP/G HT/PER (UTC) (F) (DEG/KT/KT) (MB) (MI) (FT/S) NY HARB ENTRANCE 1650 43 43 210/ 6/ 8 1015.8 2/ 7 20 S FIRE ISLAND 1750 44 43 180/ 6/ 8 1015.2 2/ 8 GREAT SOUTH BAY NOT AVBL 23 SSW MONTAUK P 1650 45 45 1016.5 3/11 15 E BARNEGAT LI 1730 42 N/A 3/ 8 HUDSON CANYON 1650 50 1016.7 3/ 8 KINGS POINT 1736 48 39 1014.5 EXECUTION ROCKS NOT AVBL CENTRAL LI SOUND 1715 41 250/ 6/ 6 N/A 0 EASTERN LI SOUND NOT AVBL ROBBINS REEF 1736 46 140/ 5/ 6 1015.1 $$ >>>>>>>>>>>>>>>>>>>>>>>>>>>> KEY <<<<<<<<<<<<<<<<<<<<<<<<<<< > < > SKY/WX - Sky Condition/Present Weather < > TMP - Temperature in Fahrenheit < > DP - Dew Point in Fahrenheit < > RH - Relative Humidity in Percent < > WIND - Direction (from) and Speed in MPH < > PRES - Mean Sea Level Pressure (inches of Hg) < > WCI - Wind Chill Index < > VSB - VISIBILITY IN MILES < > HX - HEAT INDEX < > TC - TEMPERATURE IN CELSIUS < > VRB - VARIABLE WIND DIRECTION < > < >>>>>>>>>>>>>>>>>>>>>>>>>>>> KEY <<<<<<<<<<<<<<<<<<<<<<<<<<<

USA.gov is the U.S. government's official web portal to all federal, state and local government web resources and services.